OROVILLE DAM (ORO)

Elevation: 900' · FEATHER R basin · Operator: CA Dept of Water Resources/O & M

Provisional data, subject to change.
Query executed Wednesday at 7:53:35   clock

Select a sensor type for a plot of data.
Note: Reservoir Flows are daily averages.

Earlier

Date RES ELE    STORAGE    RES CHG    TOC STO    ABV TOC    OUTFLOW    INFLOW    EVAP    FNF    PPT INC    RAIN    PPTINC4   
 FEET   AF   AF   AF   AF   CFS   CFS   CFS   CFS   INCHES   INCHES   INCHES  
04/26/2016 889.94 3381115 8255 3329804 51311 1636 5913 115 6722 0.00 30.00 0.00
04/27/2016 890.41 3388312 7197 3347848 40464 1910 5609 70 7218 0.00 30.00 0.00
04/28/2016 890.81 3394446 6134 3365458 28988 2074 5220 53 6446 0.00 30.00 0.00
04/29/2016 890.99 3397209 2763 3382861 14121 2703 4374 124 5312 0.00 30.00 0.00
04/30/2016 891.16 3399820 2611 3399584 93 3426 4824 82 6386 0.00 30.00 0.00
05/01/2016 891.37 3403047 3227 3415647 -12471 3431 5063 83 6461 0.00 30.00 0.00
05/02/2016 891.55 3405815 2768 3432660 -26720 3420 5045 229 6541 0.00 30.00 0.00
05/03/2016 891.59 3406431 616 3449117 -43027 4281 4810 141 6549 0.00 30.00 0.00
05/04/2016 891.56 3405969 -462 3465528 -59890 4919 4694 85 6432 0.00 30.00 0.00
05/05/2016 891.26 3401357 -4612 3480513 -80196 5529 3284 81 5423 0.00 30.00 0.00
05/06/2016 891.30 3401971 614 3491483 -90934 5800 6225 38 7652 0.08 30.08 0.00
05/07/2016 891.25 3401203 -768 3493352 -92550 5454 5032 42 8099 0.24 30.32 0.08
05/08/2016 891.42 3403816 2613 3506686 -102517 4699 6059 42 9117 0.04 30.36 0.28
05/09/2016 891.41 3403662 -154 3522813 -118782 4383 4228 0 6616 0.00 30.36 0.00
05/10/2016 891.57 3406123 2461 3538000 -131877 3856 5189 93 7337 0.00 30.36 0.00
05/11/2016 891.67 3407661 1538 3538000 -130339 3829 4849 166 6553 0.00 30.36 0.00
05/12/2016 891.74 3408738 1077 3538000 -129262 3837 4451 149 6318 0.00 30.36 0.00
05/13/2016 891.70 3408123 -615 3538000 -129877 4171 4061 123 5733 0.00 30.36 0.00
05/14/2016 891.52 3405354 -2769 3538000 -132646 4861 3572 106 5367 0.00 30.36 0.00
05/15/2016 891.14 3399513 -5841 3538000 -138487 6139 3301 106 4987 0.00 30.36 0.00
05/16/2016 891.01 3397516 -1996 3538000 -140484 5949 5031 166 6550 0.00 30.36 0.00
05/17/2016 890.67 3392298 -5219 3538000 -145702 5947 3491 174 4834 0.00 30.36 0.00
05/18/2016 890.25 3385861 -6437 3538000 -152139 6194 3148 200 4889 0.00 30.36 0.00
05/19/2016 889.79 3378820 -7041 3538000 -159180 6394 3070 148 3883 0.00 30.36 0.00
05/20/2016 889.40 3372860 -5960 3538000 -165140 7628 4677 132 -- 0.00 30.36 0.00
05/21/2016 888.66 3361569 -11291 3538000 -176431 8154 2624 85 -- 0.04 30.40 0.00
05/22/2016 888.03 3351980 -9589 3538000 -186020 8012 3262 85 -- 0.00 30.40 0.04
05/23/2016 887.38 3342105 -9875 3538000 -195895 8152 3237 63 -- 0.00 30.40 0.00
05/24/2016 886.88 3334524 -7581 3538000 -203476 7077 3334 80 -- 0.00 30.40 0.00
05/25/2016 -- -- -- -- -- -- -- -- -- -- -- --

Later | Latest

Warning! This data is preliminary and subject to revision.

Show ORO Map | Plot ORO Data | 1 Month ORO Data | Real-Time ORO Data | ORO Info